Probability
0 0 0 0 0 0 0 0 0 0 0 0 0 0 0 0 0 0 0 0 0 0 0 0 0 0 0 0 0 0 0 0 0 0 0 0 0 0 0 0 0 0 0
0 0 0 0 0 0 0 0 0 0 0 0 0 0 0 0 0 0 0 0 0 0 0 0 0 0 0 0 0 0 0 0 0 0 0 0 0 0 0 0 0 0 0
0 0 0 0 0 0 0 0 0 0 0 0 0 0 0 0 0 0 0 0 0 0 0 0 0 0 0 0 0 0 0 0 0 0 0 0 0 0 0 0 0 0 0
0 0 0 0 0 0 0 0 0 0 0 0 0 0 0 0 0 0 0 0 0 0 0 0 0 0 0 0 0 0 0 0 0 0 0 0 0 0 0 0 0 0 0
0 0 0 0 0 0 0 0 0 0 0 0 0 0 0 0 0 0 0 0 0 0 0 0 0 0 0 0 0 0 0 0 0 0 0 0 0 0 0 0 0 0 0
0 0 0 0 0 0 0 0 0 0 0 0 0 0 0 0 0 0 0 0 0 0 0 0 0 0 0 0 0 0 0 0 0 0 0 0 0 0 0 0 0 0 0
0 0 0 0 0 0 0 0 0 0 0 0 0 0 0 0 0 0 0 0 0 0 0 0 0 0 0 0 0 0 0 0 0 0 0 0 0 0 0 0 0 0 0
0 0 0 0 0 0 0 0 0 0 0 0 0 0 0 0 0 0 0 0 0 0 0 0 0 0 0 0 0 0 0 0 0 0 0 0 0 0 0 0 0 0 0
0 0 0 0 0 0 0 0 0 0 0 0 0 0 0 0 0 0 0 0 0 0 0 0 0 0 0 0 0 0 0 0 0 0 0 0 0 0 0 0 0 0 0
0 0 0 0 0 0 0 0 0 0 0 0 0 0 0 0 0 0 0 0 0 0 0 0 0 0 0 0 0 0 0 0 0 0 0 0 0 0 0 0 0 0 0
0 0 0 0 0 0 0 0 0 0 0 0 0 0 0 0 0 0 0 0 0 0 0 0 0 0 0 0 0 0 0 0 0 0 0 0 0 0 0 0 0 0 0
0 0 0 0 0 0 0 0 0 0 0 0 0 0 0 0 0 0 0 0 0 0 0 0 0 0 0 0 0 0 0 0 0 0 0 0 0 0 0 0 0 0 0
0 0 0 0 0 0 0 0 0 0 0 0 0 0 0 0 0 0 0 0 0 0 0 0 0 0 0 0 0 0 0 0 0 0 0 0 0 0 0 0 0 0 0
0 0 0 0 0 0 0 0 0 0 0 0 0 0 0 0 0 0 0 0 0 0 0 0 0 0 0 0 0 0 0 0 0 0 0 0 0 0 0 0 0 0 0
0 0 0 0 0 0 0 0 0 0 0 0 0 0 0 0 0 0 0 0 0 0 0 0 0 0 0 0 0 0 0 0 0 0 0 0 0 0 0 0 0 0 0
0 0 0 0 0 0 0 0 0 0 0 0 0 0 0 0 0 0 0 0 0 0 0 0 0 0 0 0 0 0 0 0 0 0 0 0 0 0 0 0 0 0 0
0 0 0 0 0 0 0 0 0 0 0 0 0 0 0 0 0 0 0 0 0 0 0 0 0 0 0 0 0 0 0 0 0 0 0 0 0 0 0 0 0 0 0
0 0 0 0 0 0 0 0 0 0 0 0 0 0 0 0 0 0 0 0 0 0 0 0 0 0 0 0 0 0 0 0 0 0 0 0 0 0 0 0 0 0 0
0 0 0 0 0 0 0 0 0 0 0 0 0 0 0 0 0 0 0 0 0 0 0 0 0 0 0 0 0 0 0 0 0 0 0 0 0 0 0 0 0 0 0
0 0 0 0 0 0 0 0 0 0 0 0 0 0 0 0 0 0 0 0 0 0 0 0 0 0 0 0 0 0 0 0 0 0 0 0 0 0 0 0 0 0 0
0 0 0 0 0 0 0 0 0 0 0 0 0 0 0 0 0 0 0 0 0 0 0 0 0 0 0 0 0 0 0 0 0 0 0 0 0 0 0 0 0 0 0
0 0 0 0 0 0 0 0 0 0 0 0 0 0 0 0 0 0 0 0 0 0 0 0 0 0 0 0 0 0 0 0 0 0 0 0 0 0 0 0 0 0 0
0 0 0 0 0 0 0 0 0 0 0 0 0 0 0 0 0 0 0 0 0 0 0 0 0 0 0 0 0 0 0 0 0 0 0 0 0 0 0 0 0 0 0
0 0 0 0 0 0 0 0 0 0 0 0 0 0 0 0 0 0 0 0 0 0 0 0 0 0 0 0 0 0 0 0 0 0 0 0 0 0 0 0 0 0 0
0 0 0 0 0 0 0 0 0 0 0 0 0 0 0 0 0 0 0 0 0 0 0 0 0 0 0 0 0 0 0 0 0 0 0 0 0 0 0 0 0 0 0
0 0 0 0 0 0 0 0 0 0 0 0 0 0 0 0 0 0 0 0 0 0 0 0 0 0 0 0 0 0 0 0 0 0 0 0 0 0 0 0 0 0 0
Wind_Speed
7 7 6 6 7 6 7 7 8 9 9 9 9 10 10 10 10 9 6 12 16 17 18 18 18 18 18 17 16 16 16 15 15 14 13 13 12 11 11 10 10 9 9
8 8 8 8 8 8 8 8 10 9 9 9 10 11 12 12 11 11 10 10 16 19 20 21 21 21 21 20 20 19 19 18 18 17 16 16 15 14 14 13 12 12 11
10 9 9 9 9 9 10 9 11 9 9 10 12 13 12 13 13 13 12 10 11 16 21 23 23 23 23 23 23 22 21 21 20 20 19 18 18 17 16 16 15 14 14
13 10 9 9 10 9 8 9 9 10 10 11 11 11 11 11 14 14 13 13 11 10 15 23 25 26 26 26 26 25 24 23 23 22 22 21 20 20 19 18 18 17 16
12 11 10 10 10 8 9 9 10 10 11 12 11 11 11 12 13 13 15 16 15 14 13 16 24 27 28 29 28 28 27 26 26 25 25 24 23 22 22 21 20 19 18
11 11 10 12 10 8 9 10 12 11 10 11 11 12 12 13 13 14 16 15 15 17 17 16 15 17 28 30 31 30 30 29 28 28 27 26 26 25 24 23 22 22 21
11 11 9 11 10 9 11 13 12 12 11 9 9 11 13 16 17 14 14 14 15 16 16 17 14 12 12 24 30 32 32 32 31 30 29 29 28 27 27 26 25 24 23
11 9 11 10 10 9 12 13 12 10 9 8 7 8 9 9 11 11 12 12 14 13 14 16 16 15 13 11 15 27 31 33 33 32 32 31 30 30 29 28 27 26 25
10 11 12 11 11 10 10 12 12 13 11 10 9 8 8 8 7 6 10 10 11 11 12 12 15 15 15 13 12 19 26 30 32 33 33 32 32 31 31 30 29 28 27
8 9 10 11 11 10 12 12 12 11 12 11 10 10 12 10 9 9 7 9 11 12 13 12 13 14 15 13 15 20 23 26 29 31 32 33 33 33 33 32 31 30 29
6 7 9 9 10 10 12 13 12 13 11 12 11 10 12 12 14 12 14 13 12 12 12 14 13 13 15 15 14 18 25 27 28 29 30 32 33 34 34 33 32 31 30
4 6 6 8 9 9 11 12 12 14 13 14 12 11 12 11 11 12 15 15 15 13 13 12 12 13 13 14 17 22 25 27 28 29 29 30 31 33 33 34 33 32 31
5 6 6 7 8 9 10 11 12 13 14 16 15 13 13 13 13 13 15 16 17 14 15 13 12 12 13 13 14 22 25 28 28 29 29 29 30 31 32 33 33 32 32
6 8 8 8 10 10 10 11 10 13 13 14 16 16 13 13 13 13 14 14 17 16 16 17 12 13 13 13 15 19 18 26 28 28 29 29 29 30 31 32 32 32 31
7 9 9 10 11 11 12 12 11 13 13 14 15 16 14 13 13 13 13 13 14 17 18 17 14 13 12 12 14 15 16 21 25 27 28 28 29 29 30 31 31 31 31
9 10 11 12 12 12 13 13 12 13 15 15 13 15 16 13 13 13 13 13 14 15 18 14 13 13 12 11 15 16 17 22 25 26 27 27 28 28 29 30 30 30 30
11 11 12 13 14 14 14 14 14 15 16 16 16 16 17 17 14 13 13 13 14 14 18 19 15 14 16 15 14 14 14 15 14 23 26 27 27 27 28 28 29 30 30
12 12 13 14 14 15 15 16 16 16 17 17 17 18 18 15 18 15 13 15 14 15 16 21 18 14 16 15 15 16 14 13 14 19 24 25 26 26 27 28 28 29 29
13 14 14 15 15 15 16 16 17 17 17 18 17 17 18 18 18 15 16 15 13 13 14 16 18 14 12 11 13 14 16 15 15 16 21 24 26 26 27 27 27 28 28
14 15 15 15 15 15 15 16 15 16 17 17 17 17 18 18 18 18 15 16 14 14 14 15 16 14 12 11 10 11 12 12 13 12 15 17 20 24 26 27 27 27 27
15 15 16 16 16 13 11 12 12 15 16 17 18 18 18 21 23 20 15 13 13 12 13 13 14 13 12 9 10 10 12 11 12 11 11 12 12 12 15 21 26 27 27
15 15 16 17 17 13 18 24 21 18 16 16 16 16 17 19 22 26 28 27 22 15 14 13 13 14 14 12 11 10 11 11 11 8 11 11 10 11 11 11 17 23 25
16 16 16 17 18 18 22 24 25 20 18 17 16 16 14 14 19 14 19 25 24 27 26 17 16 16 15 13 12 13 13 12 13 9 7 10 10 11 10 11 19 21 22
15 15 16 17 18 18 23 24 25 20 17 16 16 16 17 16 15 15 13 13 15 16 18 15 12 13 13 12 10 11 11 12 12 10 9 8 9 10 9 9 16 21 22
16 16 16 17 18 19 22 23 24 15 14 16 16 16 17 16 21 24 17 14 15 13 18 23 24 22 23 24 17 10 10 9 10 9 9 8 8 8 8 9 11 19 21
16 16 16 16 18 18 21 23 24 12 14 14 13 14 19 21 23 24 17 14 15 13 11 12 14 17 16 16 20 11 8 10 8 8 9 9 7 6 6 8 9 9 13
Wind_Direction
219 221 226 228 232 233 231 237 243 247 247 250 250 254 256 255 255 252 252 248 253 257 261 262 263 263 260 256 253 251 249 249 248 249 249 249 250 251 254 257 260 262 265
227 228 233 234 238 237 241 244 249 252 253 252 255 254 255 257 254 252 251 249 247 250 254 257 259 260 260 259 256 251 248 246 246 246 246 246 246 247 248 251 253 256 258
231 233 239 239 240 242 244 247 253 256 258 258 258 258 257 256 255 253 251 250 247 244 246 250 253 255 257 257 257 254 251 247 245 244 243 243 244 244 245 246 248 250 253
238 240 243 246 246 245 245 248 252 252 253 256 259 259 256 253 255 255 252 247 245 245 243 243 247 249 251 253 253 253 252 249 246 244 242 241 241 242 243 243 245 246 248
243 244 247 251 252 246 246 250 253 254 259 261 262 264 261 259 257 254 251 249 245 243 244 244 243 246 247 249 249 250 250 248 247 245 242 240 240 239 240 241 242 243 245
243 246 251 255 256 249 248 249 253 256 259 268 274 272 267 262 257 254 253 251 247 243 241 244 243 244 244 246 247 247 247 247 246 244 243 241 239 238 238 239 239 241 242
245 244 249 255 252 248 250 254 256 259 259 262 271 273 264 255 250 248 247 248 247 244 242 241 241 242 244 244 245 246 246 246 245 244 243 241 240 239 237 237 237 238 239
248 246 248 252 252 250 253 255 255 255 258 249 252 279 283 273 246 237 243 244 247 246 243 241 240 239 240 242 242 244 246 246 246 245 243 242 240 239 238 237 236 237 237
254 250 251 254 255 253 254 255 253 248 252 251 233 244 268 276 302 248 234 241 244 245 245 243 240 239 238 237 241 241 243 246 247 247 246 243 241 240 238 237 236 236 236
265 259 257 257 258 255 254 255 253 251 250 254 250 234 244 266 279 286 253 241 246 251 253 250 246 243 239 238 236 238 240 242 245 247 248 246 245 243 240 238 237 236 236
276 269 265 263 261 259 258 259 258 253 247 248 250 249 246 248 249 258 273 272 262 250 249 251 250 247 244 240 239 238 239 241 243 246 248 248 247 245 243 240 238 237 236
294 283 275 268 265 263 262 261 259 256 252 250 249 248 249 247 246 250 263 269 270 266 260 251 248 249 248 246 244 242 242 244 245 246 247 247 247 247 246 244 241 239 237
307 306 292 279 273 268 267 265 262 259 255 253 251 250 248 248 252 256 265 272 274 273 268 261 251 248 247 247 247 244 245 247 247 247 246 246 247 247 247 246 244 242 240
307 308 299 288 283 279 273 268 265 261 259 257 255 254 253 252 251 250 255 267 275 274 266 262 253 246 246 247 248 244 249 247 248 248 247 246 246 246 246 246 245 244 243
302 299 296 291 287 284 279 276 268 267 265 262 261 259 257 255 254 254 253 253 261 274 274 271 267 255 247 247 248 248 249 250 249 249 249 248 246 245 244 244 244 243 243
302 298 296 294 291 287 284 279 275 273 272 268 265 263 261 259 257 254 252 252 250 258 271 272 271 268 259 252 253 254 255 255 253 252 251 250 248 246 245 244 243 242 241
302 299 297 295 293 291 289 284 279 278 276 274 270 266 264 263 263 260 256 253 250 249 261 271 269 267 262 255 252 252 255 256 255 251 251 251 250 248 246 244 243 242 240
301 299 297 293 292 290 289 287 286 283 280 277 275 273 270 268 264 262 259 256 254 250 254 267 271 268 263 258 253 252 253 254 255 255 252 252 251 250 248 246 244 242 241
300 298 296 293 292 290 289 287 286 285 283 281 279 277 275 273 269 264 261 259 257 256 253 261 269 270 266 259 256 252 252 253 255 255 254 252 251 250 249 247 246 244 242
299 298 296 293 291 287 284 283 283 283 282 280 278 275 273 270 268 267 265 263 261 260 258 259 265 268 265 258 251 251 252 248 251 252 252 250 250 250 248 247 246 245 243
297 295 294 292 290 286 278 276 274 274 273 274 273 271 269 267 265 265 262 259 255 255 256 257 261 263 260 252 244 242 248 253 252 248 249 247 246 244 242 244 244 244 243
298 296 294 293 291 286 287 289 288 285 281 278 277 275 273 271 270 269 269 267 261 256 254 254 258 258 258 253 247 240 241 244 250 235 239 244 238 242 240 238 239 240 241
299 297 295 293 291 291 292 292 291 290 287 285 284 283 280 276 276 269 270 273 274 272 266 260 259 259 261 256 251 244 238 236 241 238 235 245 238 240 238 238 241 240 241
299 298 296 296 295 293 295 296 297 294 288 285 283 282 281 279 275 273 266 263 263 265 266 267 260 260 260 259 249 244 245 245 247 241 226 240 238 239 236 235 237 237 239
299 298 298 297 296 296 297 299 298 294 287 286 284 281 280 280 279 281 277 270 269 266 265 263 260 260 259 256 248 240 234 233 239 230 214 223 237 239 237 234 233 233 235
298 299 296 296 295 295 297 299 299 293 291 289 286 282 281 280 281 282 277 272 271 270 265 263 263 264 264 264 262 247 230 232 234 230 205 205 221 220 236 230 227 223 228